977  
ASUS43 KFGF 171131  
RWRFGF  
PRAIRIE TO PINES WEATHER ROUNDUP  
NATIONAL WEATHER SERVICE EASTERN NORTH DAKOTA/GRAND FORKS ND  
600 AM CDT FRI AUG 17 2018  
 
**SATELLITE DATA USED TO AUGMENT SKY COVER AT AUTOMATED STATIONS**  
***** WEATHER ACROSS EASTERN NORTH DAKOTA *****  
 
CITY SKY/WX TMP DP RH WIND PRES REMARKS
 
GRAND FORKS FAIR 53 53 100 NW6 30.10R  
GRAND FRKS AFB FAIR 53 53 100 N6 30.11R  
GRAND FRKS NWS N/A 56 55 97 N5 30.08R  
DEVILS LAKE FOG 52 52 100 CALM 30.15R VSB 3/4  
FARGO FAIR 56 56 100 N7 30.08S  
WAHPETON ARPT FAIR 54 52 94 NW6 30.09R  

 
 
***** WEATHER ACROSS CENTRAL AND WESTERN NORTH DAKOTA *****  
 
CITY SKY/WX TMP DP RH WIND PRES REMARKS
 
BISMARCK FAIR 58 56 93 NE7 30.12S  
MINOT FOG 53 53 100 CALM 30.12R VSB 1/4  
JAMESTOWN FOG 55 55 100 CALM 30.12S VSB 1/4  
MINOT AFB FOG 55 54 99 SE6 30.10S VSB 1/2  
GARRISON N/A 59 58 96 E6 30.11S  
WILLISTON FAIR 58 54 86 CALM 30.08S  
DICKINSON FAIR 60 49 66 S9 30.11S  
HETTINGER FAIR 57 49 74 CALM 30.14S  

 
 
***** OTHER AIRPORT OBSERVATIONS IN OUR AREA *****  
 
CITY SKY/WX TMP DP RH WIND PRES REMARKS
 
WALHALLA FOG 50 50 100 CALM 30.14R VSB 1/4  
GRAFTON AIRPOR FAIR 55 55 100 N7 30.14R  
VALLEY CITY AR CLOUDY 55 55 100 NW5 30.14R  
CANDO FOG 48 48 100 N6 30.17R VSB 1/2  
CAVALIER APRT FAIR 54 54 100 NW3 30.13R FOG  
GWINNER N/A 59 57 94 CALM 30.11R  
SHEYENNE NWR N/A 54 54 100 CALM 29.95S  
ROLLA FOG 46 46 100 CALM 30.16R VSB<1/4  
***** THE ABOVE OBSERVATIONS ARE NON NWS ARE NOT QUALITY  
CONTROLLED AND MAY MIS-REPORT RAIN FOR SNOW...  

 
 
***** WEATHER ACROSS NORTHERN MINNESOTA *****  
 
CITY SKY/WX TMP DP RH WIND PRES REMARKS
 
FLAG ISLAND FAIR 64 61 88 N9 30.11R  
WARROAD FAIR 55 52 88 NW3 30.12R  
ROSEAU FAIR 52 48 87 N3 30.12R FOG  
HALLOCK FAIR 50 48 93 CALM 30.12R  
THF RVR FALLS FAIR 58 57 97 NE6 30.10S  
BAUDETTE FAIR 55 55 100 NW3 30.10R  
WASKISH FAIR 55 55 100 CALM 30.10R  
CROOKSTON FAIR 52 50 93 N3 30.11R  
STEPHEN NDAWN N/A 52 50 93 N2 N/A  
GREENBUSH NDAW N/A 46 46 100 NW3 N/A  

 
***** WEATHER ACROSS CENTRAL AND WEST MINNESOTA *****  
 
CITY SKY/WX TMP DP RH WIND PRES REMARKS
 
FOSSTON FAIR 54 52 94 CALM 30.10R  
BEMIDJI N/A 52 52 99 N3 30.10R FOG  
PARK RAPIDS FAIR 58 55 90 CALM 30.08S  
ELBOW LAKE FAIR 58 58 99 CALM 30.09R  
WADENA FAIR 54 54 100 CALM 30.08S  
DETROIT LAKES FAIR 61 59 94 CALM 30.10R  
MOORHEAD FAIR 55 54 94 N5 30.10R FOG  
FERGUS FALLS FAIR 61 57 88 NE3 30.09R  
MORRIS MN FAIR 57 57 100 NW5 30.07S  
STAPLES FAIR 55 54 94 CALM 30.09R  

 
***** WEATHER ELSEWHERE ACROSS MINNESOTA *****  
 
CITY SKY/WX TMP DP RH WIND PRES REMARKS
 
DULUTH MOCLDY 63 58 83 N8 30.05R  
INTRNTL FALLS FAIR 57 57 100 NW3 30.09R FOG  
ELY FAIR 52 52 100 CALM 30.07R  
CLOQUET FAIR 57 55 94 NW6 30.05S  
WHEATON FAIR 57 55 94 W3 30.11R  
BRAINERD FAIR 59 56 89 CALM 30.07S FOG  
HIBBING FAIR 54 54 100 NW6 30.07R  
ALEXANDRIA FAIR 64 61 90 CALM 30.09S  
SAINT CLOUD FAIR 59 59 100 NW3 30.05R  
MINNEAPOLIS FAIR 68 63 84 CALM 30.02R  

 
 
***** WEATHER ACROSS SOUTH DAKOTA *****  
 
CITY SKY/WX TMP DP RH WIND PRES REMARKS
 
SIOUX FALLS FAIR 64 62 93 CALM 30.09S  
BROOKINGS FOG 62 62 100 CALM 30.10S VSB 1/4  
WATERTOWN FOG 61 61 100 CALM 30.10R VSB 1/4  
HURON FAIR 59 57 93 W3 30.09S  
SISSETON N/A 54 54 100 CALM 30.08R  
ABERDEEN FAIR 57 57 100 N5 30.11R  
MITCHELL FAIR 63 60 90 CALM 30.10R  
PIERRE FAIR 60 59 96 E3 30.10S  
MOBRIDGE FAIR 66 63 90 E3 30.09S  
RAPID CITY FAIR 55 50 83 CALM 30.17S  

 
 
***** SOME WEATHER IN NEARBY STATES *****  
 
CITY SKY/WX TMP DP RH WIND PRES REMARKS
 
GLASGOW MT FAIR 67 47 48 E13 30.02F  
GREAT FALLS MT FAIR 56 39 53 SW8 30.10R  
CHEYENNE WY FAIR 57 52 83 W6 30.31S  
SCOTTSBLUFF NE FAIR 56 54 93 CALM 30.22R  
OMAHA NE FAIR 66 63 90 N6 30.05R  
DES MOINES IA FAIR 66 65 96 NW5 29.99R  
DAVENPORT IA FOG 65 65 100 SW3 29.96S VSB 1/4  
CHICAGO IL MOCLDY 69 67 93 SW3 29.95R FOG  
EAU CLAIRE WI FAIR 65 64 97 N5 30.00R  
LA CROSSE WI FAIR 67 66 97 N6 29.99R  

 
 
***** SOME NATIONAL WEATHER *****  
 
CITY SKY/WX TMP DP RH WIND PRES REMARKS
 
LA GUARDIA NY FAIR 82 70 66 SW6 30.06S  
RALEIGH NC FAIR 74 72 93 SW8 30.16R  
ATLANTA GA LGT RAIN 74 70 87 SW6 30.20R  
NEW ORLEANS LA TSTM 78 75 90 VRB5 30.12R FOG  
OKLAHOMA CITY FAIR 72 70 93 S7 29.99S  
ALBUQUERQUE NM CLOUDY 70 54 56 E5 30.28S  
SALT LAKE CITY FAIR 71 49 45 SE6 30.16S  
LOS ANGELES CA CLOUDY 74 68 81 SW5 30.02F  
BOISE ID FAIR 74 42 31 SE10 30.06R  
SEATTLE WA FAIR 55 51 86 SW6 30.19R  

 
 
*** WEATHER ACROSS MANITOBA...SASKATCHEWAN AND ONTARIO ***  
***ONTARIO***  
 
CITY SKY/WX TMP DP RH WIND PRES REMARKS
 
GERALDTON CLOUDY 59 55 88 NE9 30.10R  
THUNDER BAY CLEAR 57 55 94 W3 30.02R  
SIOUX LOOKOUT CLOUDY 59 57 94 VRB2 30.11R  
TORONTO CLOUDY 73 72 94 S6 29.92S  
BIG TROUT LK CLEAR 46 45 93 E3 30.22S  
PICKLE LAKE MOCLDY 54 50 87 NE7 30.17  
DRYDEN CLEAR 59 57 94 NE8 30.11R  
KENORA MOCLDY 57 55 94 N7 30.12S  

 
*** MANITOBA***  
 
CITY SKY/WX TMP DP RH WIND PRES REMARKS
 
BRANDON PTCLDY 46 46 100 NE5 30.15R  
DAUPHIN CLEAR 46 45 93 CALM 30.13S  
ISLAND LAKE MOCLDY 57 52 82 SE3 30.19S  
PILOT MOUND N/A 45 43 93 CALM N/A  
THE PAS PTCLDY 55 54 94 SE9 30.08F  
THOMPSON FOG 43 41 93 SE5 30.13S VSB 5/8  
WINNIPEG PTCLDY 46 45 93 NW3 30.13R  
CHURCHILL PTCLDY 48 45 87 SW12G17 30.04S  
GILLAM MOCLDY 43 41 93 S6 30.15S  

 
***SASKATCHEWAN***  
 
CITY SKY/WX TMP DP RH WIND PRES REMARKS
 
ESTEVAN CLEAR 55 55 100 E7 30.09S SMOKE  
KINDERSLEY MOCLDY 50 48 93 W14G24 29.98S SMOKE  
LLOYDMINSTER CLEAR 55 54 94 SE3 29.98R FOG  
PRINCE ALBERT MOCLDY 48 48 100 E5 30.02F  
REGINA MOCLDY 57 54 88 SE14G20 30.03S  
YORKTON CLEAR 57 54 88 S12 30.08S  
N. BATTLEFORD CLEAR 52 50 93 E8 30.00S  
LA RONGE CLOUDY 59 54 82 SE8 30.00F  
SASKATOON PTCLDY 52 52 100 NE5 30.00S  
SWIFT CURRENT MOCLDY 63 45 51 SW9 29.99S  

 
NOTE: THESE ARE AUTOMATED STATIONS WITH LIMITED QUALITY CONTROL  
"FAIR" INDICATES FEW OR NO CLOUDS BELOW 12,000 FEET WITH NO  
SIGNIFICANT WEATHER AND/OR S TO VISIBILITY
.  
SKY/WX - SKY CONDITION AND SIGNIFICANT WEATHER.  
TMP - AIR TEMPERATURE. DP - DEWPOINT TEMPERATURE.  
RH - RELATIVE HUMIDITY. PRES - PRESSURE.  
HX - HEAT INDEX. WCI - WIND CHILL INDEX.  
$  
 
 
CLICK HERE TO GO TO PREVIOUS BULLETINS.

The Nexlab ND Page
The Nexlab MN Page Main Text Page